Location: Treviso
(45.6669°N, 12.2430°E)
Time: 13:14:23
(UTC+02:00)

ISS - Visible Passes

Search period start: 20 April 2024 00:00
Search period end: 30 April 2024 00:00
Orbit: 412 x 418 km, 51.6° (Epoch: 20 April)

Date Brightness Start Highest point End Pass type
(mag) Time Alt. Az. Time Alt. Az. Time Alt. Az.
20 Apr -1.4 05:33:45 10° S 05:36:05 18° SE 05:38:25 10° E visible
21 Apr -1.0 04:46:33 10° SSE 04:47:27 11° SE 04:48:21 10° ESE visible
22 Apr -2.9 05:31:37 10° SW 05:34:47 42° SE 05:37:58 10° ENE visible
23 Apr -2.2 04:44:16 17° S 04:45:58 26° SE 04:48:48 10° E visible
24 Apr -1.5 03:57:12 16° SE 03:57:12 16° SE 03:59:18 10° E visible
24 Apr -3.8 05:30:08 10° WSW 05:33:28 83° NNW 05:36:49 10° ENE visible
25 Apr -3.6 04:42:52 27° SW 04:44:26 63° SSE 04:47:44 10° ENE visible
26 Apr -2.9 03:55:35 37° SE 03:55:35 37° SE 03:58:32 10° ENE visible
26 Apr -3.0 05:28:53 10° W 05:32:06 44° NNW 05:35:19 10° NE visible
27 Apr -1.2 03:08:12 15° E 03:08:12 15° E 03:09:08 10° E visible
27 Apr -3.5 04:41:03 24° W 04:42:53 62° NNW 04:46:12 10° ENE visible
28 Apr -4.0 03:53:34 84° SW 03:53:40 88° SSE 03:57:01 10° ENE visible
28 Apr -2.3 05:27:36 10° WNW 05:30:38 31° N 05:33:40 10° NE visible
29 Apr -1.9 03:06:01 27° ENE 03:06:01 27° ENE 03:07:44 10° ENE visible
29 Apr -2.6 04:38:51 15° W 04:41:15 37° NNW 04:44:24 10° NE visible
